IW5EFR Vecchia di Pontedera IT current weather conditions

sailwx.info

Wind from 271 at 6 knots gusting 14

Air temperature 27.8° C
Dewpoint 18.7° C

Last reported at 2015-Jul-28 09:50 UTC.
Time now 2015-Jul-28 10:25 UTC

Location: N 43°37' E 010°38'.
View on Google Maps.

See reports from other nearby stations

  
Tides and Currents Weather Stations Pressure Air Temp Water Temp Dewpoint Dewpoint Depression Visibility Wind Speed Wind Dir Waves Ship Positions
date/time (UTC)wind fromknots sea level pressurealtimeterstation pressurevisibilityair tempwater tempwave heightnotes
2015-Jul-28 09:50 271 6 gusting 14 27.8
2015-Jul-28 09:45 284 4 gusting 14 27.8
2015-Jul-28 09:40 314 6 gusting 13 27.8
2015-Jul-28 09:35 005 4 gusting 13 27.2
2015-Jul-28 09:30 338 10 gusting 19 27.8
2015-Jul-28 09:25 355 5 gusting 19 27.8
2015-Jul-28 09:20 332 6 gusting 13 27.8
2015-Jul-28 09:15 277 4 gusting 13 27.8
2015-Jul-28 09:10 339 6 gusting 14 27.8
2015-Jul-28 09:05 318 6 gusting 14 27.8
2015-Jul-28 09:00 298 4 gusting 11 27.8
2015-Jul-28 08:55 329 13 gusting 11 27.2
2015-Jul-28 08:50 296 7 gusting 12 27.2
2015-Jul-28 08:45 274 6 gusting 12 27.8
2015-Jul-28 08:40 302 3 gusting 10 27.2
2015-Jul-28 08:35 294 6 gusting 10 27.2
2015-Jul-28 08:30 298 4 gusting 6 27.8
2015-Jul-28 08:25 327 9 gusting 6 27.8
2015-Jul-28 08:20 294 2 gusting 6 27.2
2015-Jul-28 08:15 264 27.2
2015-Jul-28 08:10 271 0 gusting 6 27.2
2015-Jul-28 08:05 272 0 gusting 6 27.2
2015-Jul-28 08:00 342 3 gusting 6 26.7
2015-Jul-28 07:55 302 2 gusting 6 26.7
2015-Jul-28 07:50 005 1 gusting 3 26.7
2015-Jul-28 07:45 348 6 gusting 3 26.7
2015-Jul-28 07:40 304 1 gusting 2 26.7
2015-Jul-28 07:35 304 26.1
2015-Jul-28 07:30 169 1 gusting 4 25.6
2015-Jul-28 07:25 169 25.6
2015-Jul-28 07:20 170 1 gusting 4 25.0
2015-Jul-28 07:15 170 24.4
2015-Jul-28 07:10 169 3 gusting 3 24.4
2015-Jul-28 07:05 129 0 gusting 3 24.4
2015-Jul-28 07:00 123 0 gusting 2 23.9
2015-Jul-28 06:55 116 3 gusting 2 23.9
2015-Jul-28 06:50 110 2 gusting 3 23.9
2015-Jul-28 06:35 110 22.2
2015-Jul-28 06:30 108 2 gusting 4 22.2
2015-Jul-28 06:25 108 21.7
2015-Jul-28 06:20 108 0 gusting 6 21.7
2015-Jul-28 06:04 110 1 gusting 3 21.1
2015-Jul-28 05:59 110 1 gusting 4 21.1
2015-Jul-28 05:54 140 20.6
2015-Jul-28 05:49 140 1 gusting 2 20.6
2015-Jul-28 05:44 140 3 gusting 2 20.0
2015-Jul-28 05:39 141 20.0
2015-Jul-28 05:35 141 20.0
2015-Jul-28 05:30 141 1 gusting 4 20.0
2015-Jul-28 05:25 142 19.4
2015-Jul-28 05:20 142 19.4
2015-Jul-28 05:03 140 18.9
2015-Jul-28 04:58 140 18.9
2015-Jul-28 04:53 140 2 gusting 3 18.9
2015-Jul-28 04:48 140 18.9
2015-Jul-28 04:43 140 18.9
2015-Jul-28 04:38 140 3 gusting 3 18.9
2015-Jul-28 04:33 142 2 gusting 3 18.9
2015-Jul-28 04:28 142 18.9
2015-Jul-28 04:23 142 3 gusting 1 18.9
2015-Jul-28 04:18 138 1 18.9
2015-Jul-28 04:13 138 18.9
2015-Jul-28 04:08 138 18.9
2015-Jul-28 04:03 138 18.9
2015-Jul-28 03:58 138 18.9
2015-Jul-28 03:53 138 18.9
2015-Jul-28 03:48 138 18.9
2015-Jul-28 03:43 138 18.9
2015-Jul-28 03:38 138 18.9
2015-Jul-28 03:33 138 1 gusting 3 18.9
2015-Jul-28 03:28 138 2 gusting 3 18.9
2015-Jul-28 03:23 138 0 gusting 5 18.9
2015-Jul-28 03:18 138 2 gusting 5 18.9
2015-Jul-28 03:13 138 0 gusting 5 18.9
2015-Jul-28 03:08 138 18.9
2015-Jul-28 03:03 139 2 gusting 5 18.9
2015-Jul-28 02:58 136 2 gusting 4 18.9
2015-Jul-28 02:53 128 2 gusting 4 18.9
2015-Jul-28 02:48 151 1 gusting 5 18.9
2015-Jul-28 02:43 151 3 gusting 5 18.9
2015-Jul-28 02:38 151 4 gusting 4 18.9
2015-Jul-28 02:33 151 3 gusting 4 18.9
2015-Jul-28 02:28 163 2 gusting 6 18.9
2015-Jul-28 02:23 159 2 gusting 6 18.9
2015-Jul-28 02:18 159 2 gusting 5 19.4
2015-Jul-28 02:13 159 3 gusting 5 19.4
2015-Jul-28 02:08 152 4 gusting 5 19.4
2015-Jul-28 02:03 143 3 gusting 5 19.4
2015-Jul-28 01:58 171 1 gusting 4 19.4
2015-Jul-28 01:53 153 2 gusting 4 19.4
2015-Jul-28 01:48 167 3 gusting 5 19.4
2015-Jul-28 01:43 169 3 gusting 5 19.4
2015-Jul-28 01:38 170 1 gusting 5 19.4
2015-Jul-28 01:33 170 2 gusting 5 20.0
2015-Jul-28 01:28 169 2 gusting 4 20.0
2015-Jul-28 01:23 169 4 gusting 4 20.0
2015-Jul-28 01:18 169 3 gusting 5 20.0
2015-Jul-28 01:13 175 3 gusting 5 20.0
2015-Jul-28 01:08 175 0 gusting 3 20.0
2015-Jul-28 01:03 175 0 gusting 3 20.0
2015-Jul-28 00:58 175 4 gusting 4 20.6
2015-Jul-28 00:53 173 20.6
2015-Jul-28 00:48 172 1 gusting 3 20.6
2015-Jul-28 00:43 172 1 gusting 2 20.6
2015-Jul-28 00:38 173 20.6
2015-Jul-28 00:33 172 0 gusting 2 20.6
2015-Jul-28 00:28 173 20.6
2015-Jul-28 00:23 173 0 gusting 1 20.6
2015-Jul-28 00:18 173 20.6
2015-Jul-28 00:13 167 20.6
2015-Jul-28 00:08 167 20.6
2015-Jul-28 00:03 167 1 gusting 2 20.6
2015-Jul-27 23:58 167 1 gusting 2 20.6
2015-Jul-27 23:53 167 0 gusting 2 20.6
2015-Jul-27 23:48 167 0 gusting 5 20.6
2015-Jul-27 23:43 167 21.1
2015-Jul-27 23:38 167 21.1
2015-Jul-27 23:33 165 3 gusting 4 21.1
2015-Jul-27 23:28 164 2 gusting 4 21.1
2015-Jul-27 23:23 173 21.1
2015-Jul-27 23:18 173 0 gusting 1 21.7
2015-Jul-27 23:13 187 0 gusting 1 21.7
2015-Jul-27 23:08 187 21.7
2015-Jul-27 23:03 187 21.7
2015-Jul-27 22:58 187 21.7
2015-Jul-27 22:53 186 21.7
2015-Jul-27 22:48 186 21.7
2015-Jul-27 22:43 186 21.7
2015-Jul-27 22:38 186 0 gusting 3 21.7
2015-Jul-27 22:33 186 0 gusting 3 21.7
2015-Jul-27 22:28 186 2 gusting 3 21.7
2015-Jul-27 22:23 186 22.2
2015-Jul-27 22:18 186 22.2
2015-Jul-27 22:13 186 22.2
2015-Jul-27 22:08 184 0 gusting 2 22.2
2015-Jul-27 22:03 267 1 gusting 2 22.8
2015-Jul-27 21:58 282 0 gusting 1 22.8
2015-Jul-27 21:53 284 22.8
2015-Jul-27 21:48 310 23.3
2015-Jul-27 21:43 310 23.9
2015-Jul-27 21:38 310 23.9
2015-Jul-27 21:33 310 23.9
2015-Jul-27 21:28 310 23.9
2015-Jul-27 21:23 310 23.9
2015-Jul-27 21:18 310 23.9
2015-Jul-27 21:13 310 23.9
2015-Jul-27 21:08 310 24.4
2015-Jul-27 21:03 310 24.4
2015-Jul-27 20:58 310 24.4
2015-Jul-27 20:53 310 25.0
2015-Jul-27 20:48 310 25.0
2015-Jul-27 20:43 310 25.0
2015-Jul-27 20:38 310 25.0
2015-Jul-27 20:33 310 25.0
2015-Jul-27 20:28 310 25.0
2015-Jul-27 20:23 310 25.0
2015-Jul-27 20:18 310 1 gusting 5 25.0
2015-Jul-27 20:13 300 25.6
2015-Jul-27 20:08 300 0 gusting 5 25.6
2015-Jul-27 20:03 300 0 gusting 5 25.6
2015-Jul-27 19:58 311 2 gusting 6 25.6
2015-Jul-27 19:53 324 1 gusting 6 25.6
2015-Jul-27 19:48 290 2 gusting 8 25.6
2015-Jul-27 19:43 321 0 gusting 7 25.6
2015-Jul-27 19:38 329 2 gusting 7 25.6
2015-Jul-27 19:33 283 0 gusting 9 25.6
2015-Jul-27 19:28 305 4 gusting 9 25.6
2015-Jul-27 19:23 275 3 gusting 9 26.1
2015-Jul-27 19:18 292 3 gusting 8 26.1
2015-Jul-27 19:13 306 3 gusting 8 26.1
2015-Jul-27 19:08 325 4 gusting 9 26.1
2015-Jul-27 19:03 311 7 gusting 9 26.1
2015-Jul-27 18:58 323 4 gusting 10 26.1
2015-Jul-27 18:53 291 4 gusting 10 26.1
2015-Jul-27 18:48 281 3 gusting 11 26.7
2015-Jul-27 18:43 273 1 gusting 11 26.7
2015-Jul-27 18:38 303 6 gusting 13 26.7
2015-Jul-27 18:33 275 5 gusting 13 26.7
2015-Jul-27 18:28 340 5 gusting 9 26.7
2015-Jul-27 18:23 290 4 gusting 9 26.7
2015-Jul-27 18:18 255 5 gusting 13 27.2
2015-Jul-27 18:13 263 3 gusting 13 27.2
2015-Jul-27 18:08 288 6 gusting 12 27.2
2015-Jul-27 18:03 268 7 gusting 12 27.2
2015-Jul-27 17:58 310 6 gusting 17 27.2
2015-Jul-27 17:53 290 5 gusting 17 27.2
2015-Jul-27 17:48 309 6 gusting 17 27.8
2015-Jul-27 17:43 259 12 gusting 13 27.8
2015-Jul-27 17:38 306 12 gusting 13 27.8
2015-Jul-27 17:33 253 9 gusting 13 27.8
2015-Jul-27 17:28 244 8 gusting 13 27.8
2015-Jul-27 17:23 246 3 gusting 13 27.8
2015-Jul-27 17:18 267 4 gusting 14 27.8
2015-Jul-27 17:13 261 2 gusting 14 27.8
2015-Jul-27 17:08 292 8 gusting 13 28.3
2015-Jul-27 17:03 290 4 gusting 13 28.3
2015-Jul-27 16:58 336 4 gusting 13 28.3
2015-Jul-27 16:53 266 9 gusting 13 28.3
2015-Jul-27 16:48 281 6 gusting 14 28.9
2015-Jul-27 16:43 259 12 gusting 15 28.9
2015-Jul-27 16:38 316 7 gusting 15 28.9
2015-Jul-27 16:33 290 10 gusting 14 28.9
2015-Jul-27 16:28 286 9 gusting 14 28.9
2015-Jul-27 16:23 259 11 gusting 14 28.9
2015-Jul-27 16:18 299 6 gusting 14 28.9
2015-Jul-27 16:13 263 4 gusting 14 28.9
2015-Jul-27 16:08 260 4 gusting 13 29.4
2015-Jul-27 16:03 299 0 gusting 13 29.4
2015-Jul-27 15:58 280 9 gusting 16 29.4
2015-Jul-27 15:53 257 7 gusting 19 29.4
2015-Jul-27 15:48 305 5 gusting 19 29.4
2015-Jul-27 15:43 289 11 gusting 19 29.4
2015-Jul-27 15:38 267 11 gusting 16 29.4
2015-Jul-27 15:33 300 8 gusting 16 29.4
2015-Jul-27 15:28 266 4 gusting 13 29.4
2015-Jul-27 15:23 263 4 gusting 13 29.4
2015-Jul-27 15:18 308 9 gusting 14 30.0
2015-Jul-27 15:13 306 6 gusting 14 30.0
2015-Jul-27 15:08 279 6 gusting 17 30.0
2015-Jul-27 15:03 286 8 gusting 17 30.0
2015-Jul-27 14:58 300 9 gusting 15 30.0
2015-Jul-27 14:53 252 13 gusting 15 30.0
2015-Jul-27 14:48 259 6 gusting 14 30.0
2015-Jul-27 14:38 262 6 gusting 19 30.6
2015-Jul-27 14:33 230 2 gusting 19 30.0
2015-Jul-27 14:28 246 4 gusting 16 30.0
2015-Jul-27 14:23 264 9 gusting 16 30.0
2015-Jul-27 14:18 277 7 gusting 17 30.0
2015-Jul-27 14:13 247 6 gusting 18 30.6
2015-Jul-27 14:08 182 5 gusting 18 30.6
2015-Jul-27 14:03 315 8 gusting 18 30.6
2015-Jul-27 13:58 261 6 gusting 14 30.6
2015-Jul-27 13:53 302 2 gusting 14 30.6
2015-Jul-27 13:48 259 4 gusting 14 30.6
2015-Jul-27 13:43 286 5 gusting 14 30.6
2015-Jul-27 13:38 270 6 gusting 12 30.6
2015-Jul-27 13:33 284 8 gusting 12 30.0
2015-Jul-27 13:28 267 4 gusting 16 30.6
2015-Jul-27 13:23 285 12 gusting 16 30.6
2015-Jul-27 13:18 271 6 gusting 16 30.6
2015-Jul-27 13:13 273 5 gusting 16 30.0
2015-Jul-27 13:08 272 6 gusting 13 30.0
2015-Jul-27 13:03 239 2 gusting 13 30.0
2015-Jul-27 12:58 298 4 gusting 20 30.0
2015-Jul-27 12:53 279 9 gusting 20 30.0
2015-Jul-27 12:48 316 5 gusting 15 30.0
2015-Jul-27 12:43 261 6 gusting 15 30.0
2015-Jul-27 12:38 278 12 gusting 15 30.0
2015-Jul-27 12:33 265 5 gusting 15 30.0
2015-Jul-27 12:28 270 1 gusting 16 30.0
2015-Jul-27 12:23 269 3 gusting 16 30.0
2015-Jul-27 12:18 267 3 gusting 16 30.6
2015-Jul-27 12:13 242 2 gusting 16 30.0
2015-Jul-27 12:08 241 6 gusting 13 30.0
2015-Jul-27 12:03 284 1 gusting 13 30.0
2015-Jul-27 11:58 277 7 gusting 13 30.0
2015-Jul-27 11:53 197 6 gusting 13 30.0
2015-Jul-27 11:48 277 6 gusting 10 30.0
2015-Jul-27 11:43 277 8 gusting 10 29.4
2015-Jul-27 11:38 236 3 gusting 11 29.4
2015-Jul-27 11:33 290 3 gusting 11 29.4
2015-Jul-27 11:28 254 29.4
2015-Jul-27 11:23 250 3 gusting 13 29.4
2015-Jul-27 11:18 246 0 gusting 14 29.4
2015-Jul-27 11:13 259 4 gusting 14 29.4
2015-Jul-27 11:08 273 10 gusting 16 29.4
2015-Jul-27 11:03 286 3 gusting 16 29.4
2015-Jul-27 10:58 257 1 gusting 14 30.0
2015-Jul-27 10:53 210 3 gusting 14 30.0
2015-Jul-27 10:48 271 10 gusting 16 30.0
2015-Jul-27 10:43 285 2 gusting 16 30.0
2015-Jul-27 10:38 269 5 gusting 13 30.0
2015-Jul-27 10:33 259 6 gusting 13 30.0
2015-Jul-27 10:28 273 6 gusting 16 29.4
2015-Jul-27 10:23 270 3 gusting 16 29.4
2015-Jul-27 10:18 344 3 gusting 12 29.4
2015-Jul-27 10:13 273 6 gusting 12 29.4
2015-Jul-27 10:08 265 9 gusting 14 29.4
2015-Jul-27 10:03 280 6 gusting 14 30.0
2015-Jul-27 09:58 210 1 gusting 13 29.4
2015-Jul-27 09:53 197 0 gusting 13 29.4
2015-Jul-27 09:48 275 2 gusting 10 28.9
2015-Jul-27 09:43 290 6 gusting 10 28.9
2015-Jul-27 09:38 198 3 gusting 8 28.9
2015-Jul-27 09:33 252 6 gusting 8 28.9
2015-Jul-27 09:28 273 2 gusting 9 28.9
2015-Jul-27 09:23 247 2 gusting 9 28.9
2015-Jul-27 09:18 291 1 gusting 6 28.9
2015-Jul-27 09:13 263 4 gusting 8 28.3
2015-Jul-27 09:08 259 5 gusting 8 28.3
2015-Jul-27 09:03 215 3 gusting 8 28.3
2015-Jul-27 08:58 284 3 gusting 5 28.3
2015-Jul-27 08:53 244 3 gusting 5 28.3
2015-Jul-27 08:48 248 2 gusting 6 28.3
2015-Jul-27 08:43 223 1 gusting 6 28.9
2015-Jul-27 08:38 247 0 gusting 6 28.9
2015-Jul-27 08:33 246 28.9
2015-Jul-27 08:28 217 1 gusting 4 28.9
2015-Jul-27 08:23 215 2 gusting 4 28.9
2015-Jul-27 08:18 215 0 gusting 4 28.3
2015-Jul-27 08:13 202 3 gusting 4 28.3
2015-Jul-27 08:08 196 1 gusting 8 28.3
2015-Jul-27 08:03 215 28.3
2015-Jul-27 07:58 197 3 gusting 6 27.8
2015-Jul-27 07:53 242 27.8
2015-Jul-27 07:48 272 4 gusting 7 27.8
2015-Jul-27 07:43 257 1 gusting 7 27.8
2015-Jul-27 07:38 265 0 gusting 8 27.8
2015-Jul-27 07:33 265 2 gusting 8 27.2
2015-Jul-27 07:28 276 3 gusting 9 27.2
2015-Jul-27 07:23 219 3 gusting 9 27.2
2015-Jul-27 07:18 267 1 gusting 10 27.2
2015-Jul-27 07:13 268 6 gusting 10 26.7
2015-Jul-27 07:08 286 1 gusting 9 26.7
2015-Jul-27 07:03 288 2 gusting 9 26.7
2015-Jul-27 06:58 255 2 gusting 9 26.7
2015-Jul-27 06:53 263 1 gusting 9 26.7
2015-Jul-27 06:48 244 3 gusting 8 26.1
2015-Jul-27 06:43 281 1 gusting 8 26.1
2015-Jul-27 06:38 293 5 gusting 9 26.1
2015-Jul-27 06:33 275 3 gusting 9 25.6
2015-Jul-27 06:28 253 0 gusting 9 25.6
2015-Jul-27 06:23 264 1 gusting 9 25.6
2015-Jul-27 06:18 265 4 gusting 7 25.6
2015-Jul-27 06:13 273 4 gusting 7 25.0
2015-Jul-27 06:08 283 2 gusting 6 25.0
2015-Jul-27 06:03 255 6 gusting 6 25.0
2015-Jul-27 05:53 299 6 gusting 2 23.9
2015-Jul-27 05:48 261 3 gusting 3 23.9
2015-Jul-27 05:43 188 23.3
2015-Jul-27 05:38 188 23.3
2015-Jul-27 05:33 188 22.8
2015-Jul-27 05:28 188 22.8
2015-Jul-27 05:23 188 22.8
2015-Jul-27 05:18 188 2 gusting 1 22.2
2015-Jul-27 05:13 188 0 gusting 1 22.2
2015-Jul-27 05:08 188 21.7
2015-Jul-27 05:03 188 21.7
2015-Jul-27 04:58 188 0 gusting 3 21.7
2015-Jul-27 04:53 188 21.7
2015-Jul-27 04:48 188 21.7
2015-Jul-27 04:43 188 1 gusting 1 21.7
2015-Jul-27 04:38 188 0 gusting 2 21.7
2015-Jul-27 04:33 188 21.7
2015-Jul-27 04:28 188 21.7
2015-Jul-27 04:23 188 21.7
2015-Jul-27 04:18 188 21.7
2015-Jul-27 04:13 188 21.7
2015-Jul-27 04:08 188 0 gusting 3 21.7
2015-Jul-27 04:03 188 0 gusting 3 21.7
2015-Jul-27 03:58 188 22.2
2015-Jul-27 03:53 190 0 gusting 3 22.2
2015-Jul-27 03:48 194 1 gusting 3 22.2
2015-Jul-27 03:43 190 1 gusting 3 22.2
2015-Jul-27 03:38 190 22.2
2015-Jul-27 03:33 190 22.8
2015-Jul-27 03:28 190 22.8
2015-Jul-27 03:23 190 22.8
2015-Jul-27 03:18 209 22.8
2015-Jul-27 03:13 209 22.8
2015-Jul-27 03:08 218 22.8
2015-Jul-27 03:03 200 3 gusting 1 22.8
2015-Jul-27 02:58 202 22.8
2015-Jul-27 02:53 212 22.8
2015-Jul-27 02:48 212 0 gusting 1 22.8
2015-Jul-27 02:43 212 22.8
2015-Jul-27 02:38 213 0 gusting 3 22.8
2015-Jul-27 02:33 214 22.8
2015-Jul-27 02:28 215 22.8
2015-Jul-27 02:23 217 22.8
2015-Jul-27 02:18 201 0 gusting 3 22.8
2015-Jul-27 02:13 198 22.8
2015-Jul-27 02:08 198 0 gusting 2 22.8
2015-Jul-27 02:03 197 2 gusting 2 22.8
2015-Jul-27 01:58 192 22.8
2015-Jul-27 01:54 192 22.8
2015-Jul-27 01:49 191 22.8
2015-Jul-27 01:44 192 22.8
2015-Jul-27 01:39 191 22.8
2015-Jul-27 01:34 191 22.8
2015-Jul-27 01:29 191 22.8
2015-Jul-27 01:24 190 22.8
2015-Jul-27 01:19 190 22.8
2015-Jul-27 01:14 190 0 gusting 3 22.8
2015-Jul-27 01:09 190 22.8
2015-Jul-27 01:04 190 22.8
2015-Jul-27 00:59 200 1 gusting 2 22.8
2015-Jul-27 00:54 200 22.8
2015-Jul-27 00:49 200 0 gusting 2 22.8
2015-Jul-27 00:44 200 22.8
2015-Jul-27 00:39 200 0 gusting 1 22.8
2015-Jul-27 00:34 200 0 gusting 1 22.8
2015-Jul-27 00:29 200 22.8
2015-Jul-27 00:24 200 22.8
2015-Jul-27 00:19 200 22.8
2015-Jul-27 00:14 200 22.8
2015-Jul-27 00:09 200 22.8
2015-Jul-27 00:04 200 22.8
2015-Jul-26 23:59 200 22.8
2015-Jul-26 23:54 200 22.8
2015-Jul-26 23:48 200 0 gusting 2 22.8
2015-Jul-26 23:43 200 22.8
2015-Jul-26 23:38 200 2 gusting 2 22.8
2015-Jul-26 23:33 205 23.3
2015-Jul-26 23:28 205 23.3
2015-Jul-26 23:23 205 23.3
2015-Jul-26 23:18 206 0 gusting 2 23.3
2015-Jul-26 23:13 206 1 gusting 2 23.3
2015-Jul-26 23:08 208 0 gusting 6 23.3
2015-Jul-26 23:03 204 23.3
2015-Jul-26 22:58 217 23.3
2015-Jul-26 22:53 217 0 gusting 5 23.3
2015-Jul-26 22:48 263 2 gusting 3 23.3
2015-Jul-26 22:43 259 23.3
2015-Jul-26 22:38 265 23.3
2015-Jul-26 22:33 265 23.3
2015-Jul-26 22:28 277 1 gusting 6 23.3
2015-Jul-26 22:23 277 23.3
2015-Jul-26 22:18 264 23.3
2015-Jul-26 22:13 264 0 gusting 5 23.3
2015-Jul-26 22:08 261 0 gusting 6 23.3
2015-Jul-26 22:03 261 2 gusting 6 23.3
2015-Jul-26 21:58 252 0 gusting 5 23.3
2015-Jul-26 21:53 265 1 gusting 5 23.3
2015-Jul-26 21:48 275 1 gusting 4 23.3
2015-Jul-26 21:43 254 1 gusting 4 23.3
2015-Jul-26 21:38 267 4 gusting 5 23.3
2015-Jul-26 21:33 267 0 gusting 5 23.3
2015-Jul-26 21:28 267 1 gusting 2 23.3
2015-Jul-26 21:23 273 3 gusting 2 23.3
2015-Jul-26 21:18 273 23.3
2015-Jul-26 21:13 273 23.3
2015-Jul-26 21:08 273 23.3
2015-Jul-26 21:03 273 1 gusting 3 23.9
2015-Jul-26 20:58 273 0 gusting 5 23.9
2015-Jul-26 20:53 273 23.9
2015-Jul-26 20:48 273 1 gusting 5 23.9
2015-Jul-26 20:33 257 0 gusting 5 23.9
2015-Jul-26 20:28 257 1 gusting 5 23.9
2015-Jul-26 20:23 267 3 gusting 5 24.4
2015-Jul-26 20:18 270 0 gusting 6 24.4
2015-Jul-26 20:13 262 3 gusting 6 24.4
2015-Jul-26 20:08 254 3 gusting 6 24.4
2015-Jul-26 20:05 254 2 gusting 6 24.4
2015-Jul-26 20:00 234 24.4
2015-Jul-26 19:55 259 0 gusting 5 24.4
2015-Jul-26 19:50 257 2 gusting 6 24.4
2015-Jul-26 19:45 251 2 gusting 6 24.4
2015-Jul-26 19:40 267 0 gusting 6 25.0
2015-Jul-26 19:35 266 4 gusting 6 25.0
2015-Jul-26 19:30 255 2 gusting 4 25.0
2015-Jul-26 19:25 270 3 gusting 4 25.0
2015-Jul-26 19:20 275 0 gusting 4 25.0
2015-Jul-26 19:15 274 0 gusting 4 25.0
2015-Jul-26 19:10 274 3 gusting 5 25.0
2015-Jul-26 19:05 274 2 gusting 5 25.6
2015-Jul-26 19:00 274 1 gusting 9 25.6
2015-Jul-26 18:55 274 25.6
2015-Jul-26 18:50 263 1 gusting 10 25.6
2015-Jul-26 18:45 269 1 gusting 10 25.6
2015-Jul-26 18:40 261 2 gusting 10 25.6
2015-Jul-26 18:35 267 4 gusting 10 25.6
2015-Jul-26 18:30 261 6 gusting 8 26.1
2015-Jul-26 18:25 261 4 gusting 8 26.1
2015-Jul-26 18:20 274 6 gusting 9 26.1
2015-Jul-26 18:15 269 6 gusting 9 26.1
2015-Jul-26 18:10 263 1 gusting 12 26.7
2015-Jul-26 18:05 312 4 gusting 12 26.7
2015-Jul-26 18:00 246 6 gusting 10 26.7
2015-Jul-26 17:55 263 4 gusting 10 26.7
2015-Jul-26 17:50 284 6 gusting 10 26.7
2015-Jul-26 17:45 292 1 gusting 10 26.7
2015-Jul-26 17:40 259 4 gusting 11 26.7
2015-Jul-26 17:35 289 5 gusting 11 27.2
2015-Jul-26 17:30 279 5 gusting 11 27.2
2015-Jul-26 17:25 273 5 gusting 11 27.2
2015-Jul-26 17:20 252 5 gusting 9 27.2
2015-Jul-26 17:15 277 2 gusting 9 27.8
2015-Jul-26 17:10 268 8 gusting 13 27.8
2015-Jul-26 17:05 316 2 gusting 13 27.2
2015-Jul-26 17:00 317 9 gusting 12 27.8
2015-Jul-26 16:55 257 6 gusting 12 27.8
2015-Jul-26 16:50 284 1 gusting 11 27.8
2015-Jul-26 16:45 261 12 gusting 11 28.3
2015-Jul-26 16:40 300 5 gusting 14 28.3
2015-Jul-26 16:35 304 3 gusting 14 28.3
2015-Jul-26 16:30 262 8 gusting 14 28.3
2015-Jul-26 16:25 275 8 gusting 14 28.3
2015-Jul-26 16:20 312 8 gusting 13 28.3
2015-Jul-26 16:15 259 6 gusting 13 28.9
2015-Jul-26 16:10 273 6 gusting 13 28.9
2015-Jul-26 16:05 277 9 gusting 13 28.9
2015-Jul-26 16:00 271 6 gusting 11 28.9
2015-Jul-26 15:55 279 9 gusting 11 28.9
2015-Jul-26 15:50 271 5 gusting 10 29.4
2015-Jul-26 15:45 273 4 gusting 10 29.4
2015-Jul-26 15:40 259 4 gusting 12 29.4
2015-Jul-26 15:35 261 5 gusting 12 29.4
2015-Jul-26 15:30 288 5 gusting 13 30.0
2015-Jul-26 15:25 255 2 gusting 13 30.0
2015-Jul-26 15:20 297 3 gusting 12 30.0
2015-Jul-26 15:15 296 2 gusting 12 30.0
2015-Jul-26 15:10 306 7 gusting 12 30.0
2015-Jul-26 15:05 277 4 gusting 12 30.0
2015-Jul-26 15:00 260 12 gusting 13 30.0
2015-Jul-26 14:55 265 4 gusting 13 30.6
2015-Jul-26 14:50 258 5 gusting 10 30.6
2015-Jul-26 14:45 323 5 gusting 10 30.6
2015-Jul-26 14:40 296 6 gusting 11 30.6
2015-Jul-26 14:35 306 4 gusting 11 30.6
2015-Jul-26 14:30 274 4 gusting 10 30.6
2015-Jul-26 14:25 295 5 gusting 10 30.0
2015-Jul-26 14:20 269 6 gusting 11 30.6
2015-Jul-26 14:15 319 5 gusting 11 30.6
2015-Jul-26 14:10 292 4 gusting 13 30.6
2015-Jul-26 14:05 332 6 gusting 13 30.6
2015-Jul-26 14:00 263 7 gusting 12 30.6
2015-Jul-26 13:55 305 4 gusting 12 30.6
2015-Jul-26 13:50 285 4 gusting 10 30.6
2015-Jul-26 13:45 279 1 gusting 10 30.6
2015-Jul-26 13:40 281 7 gusting 8 30.6
2015-Jul-26 13:35 263 6 gusting 8 30.6
2015-Jul-26 13:30 339 4 gusting 11 31.1
2015-Jul-26 13:25 329 7 gusting 11 31.1
2015-Jul-26 13:20 316 2 gusting 13 31.1
2015-Jul-26 13:15 355 7 gusting 13 31.1
2015-Jul-26 13:10 275 2 gusting 11 30.6
2015-Jul-26 13:05 284 7 gusting 11 30.6
2015-Jul-26 13:00 317 7 gusting 13 31.1
2015-Jul-26 12:55 274 5 gusting 13 31.1
2015-Jul-26 12:50 334 1 gusting 11 31.1
2015-Jul-26 12:45 308 5 gusting 11 31.1
2015-Jul-26 12:40 317 4 gusting 10 31.1
2015-Jul-26 12:35 248 7 gusting 10 31.1
2015-Jul-26 12:30 273 3 gusting 8 31.1
2015-Jul-26 12:25 269 4 gusting 8 31.1
2015-Jul-26 12:20 316 6 gusting 8 31.1
2015-Jul-26 12:15 293 1 gusting 8 31.1
2015-Jul-26 12:10 319 2 gusting 6 31.1
2015-Jul-26 12:05 334 1 gusting 6 31.1
2015-Jul-26 12:00 277 6 gusting 6 31.1
2015-Jul-26 11:55 280 3 gusting 6 31.1
2015-Jul-26 11:50 278 31.7
2015-Jul-26 11:45 349 31.1
2015-Jul-26 11:35 012 0 gusting 5 30.6
2015-Jul-26 11:30 192 3 gusting 3 30.6
2015-Jul-26 11:25 261 0 gusting 3 30.6
2015-Jul-26 11:20 306 30.0
2015-Jul-26 11:15 338 0 gusting 6 30.0
2015-Jul-26 11:10 117 29.4
2015-Jul-26 11:05 117 29.4
2015-Jul-26 11:00 122 0 gusting 3 29.4
2015-Jul-26 10:55 122 29.4
2015-Jul-26 10:50 122 29.4
2015-Jul-26 10:45 122 0 gusting 3 29.4
2015-Jul-26 10:40 122 0 gusting 2 29.4
2015-Jul-26 10:35 122 1 gusting 2 30.0
2015-Jul-26 10:30 125 0 gusting 3 30.0
2015-Jul-26 10:25 125 30.0
2015-Jul-26 10:20 125 29.4